weather.gov     
National Weather Service

Regional Weather Roundup
NWS Homepage
This page is being discontinued on March 12, 2014.
The same data is available at this site. Please update your bookmarks.
Thank you, and we apologize for the inconvenience.
Please send an email to SR-SRH.Webmaster@noaa.gov with any concerns.


Current Version
Previous Version:    01  02  03  04  05  06  07  08  09  10  11  12  13  14  15  16  17  18  19  20  21  22  23  24  25  26  27  28  29  30  
   31  32  33  34  35  36  37  38  39  40  41  42  43  44  45  46  47  48  49  50  51  52  53  54  
[Printable]
594
ASUS45 KABQ 241501
RWRNM
WEATHER ROUNDUP FOR NEW MEXICO
NATIONAL WEATHER SERVICE ALBUQUERQUE NM
900 AM MDT FRI OCT 24 2014

NOTE: "FAIR" MEANS FEW OR NO CLOUDS BELOW 12,000 FEET AGL WITH NO
       SIGNIFICANT WEATHER OR OBSTRUCTIONS TO VISION.

      THIS PRODUCT IS RELEASED AS TWO VERSIONS.  ONE VERSION NEAR
      THE TOP OF THE HOUR CONTAINING PRELIMINARY DATA FROM ALBUQUERQUE
      AND OTHER STATIONS.  A FINAL VERSION WITH ADDITIONAL DATA IS
      ISSUED ABOUT 10 MINUTES AFTER THE HOUR.

NMZ501-503-504-510>518-241600-
NORTHWEST PLATEAU/NORTHCENTRAL MOUNTAINS

CITY           SKY/WX    TMP DP  RH WIND       PRES   REMARKS
FARMINGTON     SUNNY     47  34  60 E8        30.36R
LOS ALAMOS     SUNNY     52  29  42 CALM      30.41R
SANTA FE       SUNNY     51  31  46 N14       30.36R
TAOS           SUNNY     45  30  57 CALM      30.43R
ANGEL FIRE     FAIR      35  30  82 CALM      30.48R

$$
NMZ402-403-502-505>509-241600-
WESTCENTRAL MOUNTAINS/SOUTHWEST MOUNTAINS

CITY           SKY/WX    TMP DP  RH WIND       PRES   REMARKS
GALLUP         SUNNY     43  34  70 CALM      30.41R
SILVER CITY    SUNNY     59  46  63 NW3       30.35R

$$
NMZ407-409-411-412-241600-
SOUTHERN DESERTS

CITY           SKY/WX    TMP DP  RH WIND       PRES   REMARKS
LORDSBURG      FAIR      54  46  76 MISG      30.28R
DEMING         SUNNY     58  48  69 CALM      30.28R
HOLLOMAN AFB   SUNNY     56  47  72 SE3       30.26R
T OR C         SUNNY     60  45  57 N3        30.30R

$$
NMZ519>523-241600-
CENTRAL VALLEYS/CENTRAL HIGHLANDS

CITY           SKY/WX    TMP DP  RH WIND       PRES   REMARKS
ALBUQUERQUE    MOSUNNY   51  36  56 NW3       30.35R
DOUBLE EAGLE   SUNNY     55  34  44 CALM      30.36R
MORIARTY ARPT  FAIR      46  35  65 CALM      30.37R
CLINES CORNERS SUNNY     57  31  37 NW17      30.35R
BELEN          FAIR      53  32  45 NW6       30.33R
SOCORRO        FAIR      56  41  56 N6        30.32R

$$
NMZ524>526-539-540-241600-
SOUTHCENTRAL MOUNTAINS

CITY           SKY/WX    TMP DP  RH WIND       PRES   REMARKS
RUIDOSO        SUNNY     57  36  44 SW5       30.39R

$$
NMZ527>531-241600-
NORTHEAST HIGHLANDS/NORTHEAST PLAINS

CITY           SKY/WX    TMP DP  RH WIND       PRES   REMARKS
LAS VEGAS      SUNNY     57  29  34 N3        30.34R
RATON          SUNNY     51  38  60 NE5       30.30R
CLAYTON        SUNNY     68  36  30 W7        30.21R

$$
NMZ532>537-241600-
EASTCENTRAL PLAINS

CITY           SKY/WX    TMP DP  RH WIND       PRES   REMARKS
TUCUMCARI      SUNNY     58  40  51 W9        30.20R
CANNON AFB     SUNNY     58  49  72 W8        30.22R
CLOVIS AIRPORT SUNNY     61  48  63 W10       30.23R

$$
NMZ028-029-538-241600-
SOUTHEAST PLAINS

CITY           SKY/WX    TMP DP  RH WIND       PRES   REMARKS
ROSWELL        SUNNY     57  50  77 NE3       30.21R
CARLSBAD       SUNNY     63  55  75 CALM      30.20R
HOBBS          SUNNY     57  57 100 S3        30.23R


$$




U.S. Dept. of Commerce
NOAA National Weather Service
1325 East West Highway
Silver Spring, MD 20910
E-mail: w-nws.webmaster@noaa.gov
Page last modified: May 16, 2007
NATIONAL WEATHER SERVICE: for Safety, for Work, for Fun - FOR LIFE